Regional Weather Roundup
Issued by NWS Portland, ME

Home | Current Version | Previous Version | Text Only | Print | Product List | Glossary On
Versions: 1 2 3 4 5 6 7 8 9 10 11 12 13 14 15 16 17 18 19 20 21 22 23 24 25 26 27 28 29 30 31 32 33 34 35 36 37 38 39 40 41 42 43 44 45 46 47 48 49 50
000
ASUS41 KGYX 162005
RWRGYX
WEATHER ROUNDUP FOR MAINE AND NEW HAMPSHIRE
NATIONAL WEATHER SERVICE GRAY ME
400 PM EDT WED AUG 16 2017

MEZ002-005-006-010-012-015-018-020-021-024-026-027-029-162100-
MAINE

CITY           SKY/WX    TMP DP  RH WIND       PRES   REMARKS
PORTLAND       MOSUNNY   80  49  33 NW10G21   29.90S
SANFORD        MOSUNNY   78  52  40 W12G18    29.92S
BAR HARBOR     SUNNY     76  44  32 N14G21    29.86S
WISCASSET      SUNNY     80  44  27 MISG      29.91S
ROCKLAND       SUNNY     77  54  44 NW13G18   29.87S
FRYEBURG       SUNNY     76  46  34 W8G20     29.94F
LEWISTONAUBURN SUNNY     76  48  37 NW16      29.92S
AUGUSTA        SUNNY     75  40  28 NW13G24   29.92R
WATERVILLE     SUNNY     74  47  38 W8        29.89S
BANGOR         MOSUNNY   77  44  30 NW15G21   29.88S
GREENVILLE       N/A     66  45  46 NW15G25   29.90S
MILLINOCKET    SUNNY     72  42  34 W10G21    29.88S
HOULTON        SUNNY     72  44  36 NW13      29.83R
PRESQUE ISLE   MOSUNNY   68  42  38 NW14G24   29.86R
FRENCHVILLE    MOSUNNY   63  40  42 W12G28    29.85S
CARIBOU        MOSUNNY   68  44  42 W10G21    29.84S
$$

NHZ002-005-008-009-011-012-014-162100-
NEW HAMPSHIRE

CITY           SKY/WX    TMP DP  RH WIND       PRES   REMARKS
PORTSMOUTH     MOSUNNY   81  53  37 NW15G24   29.89F
ROCHESTER      MOSUNNY   78  51  38 NW16G22   29.92F
NASHUA         PTSUNNY   80  58  46 NW9       29.93S
MANCHESTER     PTSUNNY   81  53  37 NW15      29.91F
CONCORD        MOSUNNY   79  53  40 NW14G24   29.94S
LACONIA        MOSUNNY   75  50  41 NW10G17   29.96F
PLYMOUTH       FAIR      73  46  37 NW7G17    29.96S
BERLIN         MOSUNNY   70  42  36 W9        29.98F
WHITEFIELD     MOSUNNY   71  47  42 NW8       29.99S
JAFFREY        MOSUNNY   76  57  51 VRB5      29.97F
KEENE            N/A    N/A N/A N/A MISG        N/A
LEBANON        MOSUNNY   76  48  37 NW8       29.97F
MT WASHINGTON  MOSUNNY   43  39  87 NW41G53     N/A
$$

VTZ005-007-008-162100-
VERMONT

CITY           SKY/WX    TMP DP  RH WIND       PRES   REMARKS
ST JOHNSBURY     N/A     72  46  39 MISG      29.98F
MONTPELIER     SUNNY     69  49  48 N12       30.04F
BURLINGTON     MOSUNNY   75  48  38 N14       30.00F
$$

MAZ007-012-024-CTZ003-RIZ002-NYZ038-NYZ072-162100-
SOUTHERN NEW ENGLAND AND NY

CITY           SKY/WX    TMP DP  RH WIND       PRES   REMARKS
BOSTON         PTSUNNY   84  57  39 NW12      29.91S
WORCESTER      SUNNY     79  54  41 VRB7      29.97S
NANTUCKET      SUNNY     78  63  59 N12       29.92S
PROVIDENCE     PTSUNNY   86  60  41 N8        29.91F
HARTFORD       MOSUNNY   84  58  40 N9        29.93F
ALBANY         PTSUNNY   81  58  45 NW14      29.96S
NEW YORK CITY  PTSUNNY   84  63  49 N7        29.95S
$$

ANZ081-ANZ082-ANZ150-NHZ014-MEZ023>029-162100-
COASTAL MARINE OBSERVATIONS

STATION/POSITION TIME  TEMP    WIND        PRES    WAVE
                       AIR SEA DIR/SP/G            HT/PER
                 (UTC) (F)     (DEG/KT/KT) (MB)    (FT/S)
MOUNT DESERT ROC 2000   63                 1011.0F
MATINICUS ROCK   1900   68     230/  8/  9 1011.3S
ISLE OF SHOALS   1900   75     310/ 15/ 16 1012.2F
JEFFREYS LEDGE   1936      68                N/A     2/13
CASHES LEDGE BUO 1850   73 69              1012.0    4/13
GEORGES BANK BUO 1850   65 65              1009.1    9/12
$$

.............KEY..............
   WCI - WIND CHILL
   TC  - TEMPERATURE IN CELSIUS
   VSB - VISIBILITY IN MILES
   HX  - HEAT INDEX
   FAIR- INDICATES FEW OR NO CLOUDS BELOW 12,000 FT, WITH NO
         SIGNIFICANT WEATHER AND/OR OBSTRUCTIONS TO VISIBILITY.






USA.gov is the U.S. government's official web portal to all federal, state and local government web resources and services.